Starlink 31164

operational
NORAD ID: 58733 Int'l Des: 2024-005 Owner: SPXS Country: US Constellation: starlink
LEOCIRCULAR

Über Starlink 31164

Beschreibung wird geladen...

Live-Position

3D-Globus wird geladen...

Nächste Überflüge

Höhenverlauf

Altitude vs Time

uPlot chart will show altitude changes over time

Zweizeiliger Elementsatz

1 58733U 24005F 25258.23459128 .00001017 00000-0 90345-4 0 9997
2 58733 43.0029 95.4210 0001253 264.1103 95.9596 15.02539495 94015
Epoch: 15. Sept. 2025 • Age: 7 hours

Aktueller Status

Höhe 561.5 km
Geschwindigkeit 7.58 km/s
Subsatellitenpunkt -14.48°S, 101.46°E
Startdatum 7. Jan. 2024
Alter 1.6 years
Typ internet

Technische Details

Klassifizierung Payload
Masse 730.00 kg
Trockenmasse 700.00 kg
Gesamtmasse 730.00 kg
Länge 0.30 m
Durchmesser 4.10 m
Spannweite 29.00 m
Form Box + pan
Hersteller SPXS
Bus-Typ Starlink V2M
Phasenstatus In Orbit
Besitzer/Staat SPXS/US

Große Konstellationen

Loading constellations...